Regional Weather Roundup
Issued by NWS

Home | Current Version | Previous Version | Graphics & Text | Print | Product List | Glossary Off
Versions: 1 2 3 4 5 6 7 8 9 10 11 12 13 14 15 16 17 18 19 20 21 22 23 24 25 26 27 28 29 30 31 32 33 34 35 36 37 38 39 40 41 42 43 44 45 46 47 48 49 50

000
ASUS43 KTOP 281159
RWRKS

WEATHER ROUNDUP FOR KANSAS
NATIONAL WEATHER SERVICE GOODLAND KS
700 AM CDT MON JUL 28 2014

NOTE:  "FAIR" INDICATES FEW OR NO CLOUDS BELOW 12,000 FEET WITH NO
SIGNIFICANT WEATHER AND/OR OBSTRUCTIONS TO VISIBILITY.

KSZ001>006-013>018-027>032-041>047-281300-
NORTHWEST KANSAS

CITY           SKY/WX    TMP DP  RH WIND       PRES   REMARKS
GOODLAND       MOCLDY    60  53  77 SE5       30.32F
6HR MIN TEMP:  58; 6HR MAX TEMP:  67;

HAYS           PTCLDY    61  54  77 NE9       30.29R
HILL CITY      PTCLDY    61  56  83 NE5       30.30R
6HR MIN TEMP:  60; 6HR MAX TEMP:  67;

RUSSELL        PTCLDY    61  55  81 NE7       30.27R
6HR MIN TEMP:  59; 6HR MAX TEMP:  69;

$$

KSZ061>065-074>080-084>089-281300-
SOUTHWEST KANSAS

CITY           SKY/WX    TMP DP  RH WIND       PRES   REMARKS
DODGE CITY     CLOUDY    67  57  70 CALM      30.29R
6HR MIN TEMP:  64; 6HR MAX TEMP:  69;

ELKHART          N/A     64  56  75 SW10        N/A
GARDEN CITY    CLOUDY    69  61  75 CALM      30.30R
6HR MIN TEMP:  65; 6HR MAX TEMP:  72;

GREAT BEND     CLEAR     64  55  72 NE5       30.26R
LIBERAL        CLOUDY    70  57  64 W9        30.34R
PRATT          PTCLDY    64  54  68 CALM      30.27R
$$

KSZ066>073-081>083-090>101-281300-
SOUTHEAST KANSAS

CITY           SKY/WX    TMP DP  RH WIND       PRES   REMARKS
CHANUTE        CLEAR     62  58  86 N7        30.20R
6HR MIN TEMP:  58; 6HR MAX TEMP:  68;

COFFEYVILLE    CLEAR     63  60  90 CALM      30.18R FOG
6HR MIN TEMP:  61; 6HR MAX TEMP:  69;

HUTCHINSON     PTCLDY    64  56  75 N7        30.24R
6HR MIN TEMP:  63; 6HR MAX TEMP:  71;

MEDICINE LODGE   N/A     64  59  83 CALM      30.24R
NEWTON         PTCLDY    61  52  72 N5        30.27R
PARSONS        CLEAR     59  56  89 CALM      30.20R
6HR MIN TEMP:  57; 6HR MAX TEMP:  71;

WICHITA INTL   MOCLDY    68  57  68 NE6       30.22R
6HR MIN TEMP:  67; 6HR MAX TEMP:  74;

WICHITA JABRA  PTCLDY    62  58  86 N5        30.22R
6HR MIN TEMP:  60; 6HR MAX TEMP:  67;

WINFIELD       CLEAR     61  58  90 N3        30.22R
6HR MIN TEMP:  61; 6HR MAX TEMP:  71;

$$

KSZ007>012-019>026-033>040-048>060-102>105-281300-
NORTHEAST KANSAS

CITY           SKY/WX    TMP DP  RH WIND       PRES   REMARKS
CONCORDIA      CLEAR     60  57  89 N6        30.27R
6HR MIN TEMP:  59; 6HR MAX TEMP:  67;

EMPORIA        PTCLDY    61  57  87 N7        30.22R
6HR MIN TEMP:  59; 6HR MAX TEMP:  69;

LAWRENCE       CLEAR     60  56  86 NW8       30.20R
6HR MIN TEMP:  58; 6HR MAX TEMP:  66;

MANHATTAN      CLEAR     63  57  81 CALM      30.24R
6HR MIN TEMP:  60; 6HR MAX TEMP:  69;

OLATHE IND     CLEAR     61  58  90 NW8       30.20R
6HR MIN TEMP:  59; 6HR MAX TEMP:  64;

OLATHE EXE     CLEAR     63  57  81 N5        30.19R
6HR MIN TEMP:  63; 6HR MAX TEMP:  70;

SALINA         PTCLDY    63  56  78 N7        30.26R
6HR MIN TEMP:  63; 6HR MAX TEMP:  74;

TOPEKA BILLARD CLEAR     63  58  83 N8        30.22R
6HR MIN TEMP:  62; 6HR MAX TEMP:  69;

TOPEKA FORBES  CLEAR     63  57  81 N6        30.21R
6HR MIN TEMP:  60; 6HR MAX TEMP:  70;

$$



USA.gov is the U.S. government's official web portal to all federal, state and local government web resources and services.